DECAYED

COSMOS 2251 DEB, 34948 (Decayed)

Orbit data source: Space-Track

COSMOS 2251 DEB, 34948 was space debris in LEO originally from a launch on Wed, 16 Jun 1993 UTC launched from the Plesetsk Missile And Space Complex (PKMTR). The debris from Iridium 33, an American commercial communications satellite, has been tracked extensively since its accidental collision with the defunct Russian satellite Cosmos 2251 in 2009. This event, occurring at high speed in low Earth orbit (LEO), generated thousands of pieces of space debris, significantly increasing the risk of further collisions. The Iridium 33 debris cloud has impacted space traffic management and orbital debris mitigation strategies, making it a subject of ongoing study in space situational awareness.

Not visible in the next 10 days
Identifier
34948, 1993-036AEB
Orbit
Decayed
Country
Flag of CISCIS
Related business
Manufacturer
Unknown
Mission
Decayed spacecraft
Bus & Motor
Unknown
Mass
Unknown
Launch date (UTC)
1993-06-16 (33 years ago)
Launch vehicle
Unknown
Launch site
Plesetsk Missile And Space Complex (PKMTR)
Object type
Payload
Rocket body
Debris
Shape & HBR
Unknown shape, 0.1 m
Radar Cross Section
Small (<0.1 m²)

Expand to show TLE details & history
Last TLE update: 1 year ago

TLE from 1 year ago
0 COSMOS 2251 DEB
1 34948U 93036AEB 25082.77912704  .02517199  00000-0  21995-1 0  9994
2 34948  73.9718 207.2955 0028317 333.6507  26.3271 15.65094270841286
Epoch: 2025-03-23T18:41Z
TLE epoch observation values (Epoch: 2025-03-23T18:41:56.576Z)
Latitude
-0.00002°
Longitude
105.30481°
Altitude
358.602 km
Speed
7.704 km/s
True Right ascension
13h 49m 10s
True Declination
0° 00' 00"
Sunlit
Object was in full shadow at epoch
Visualization orbit readout
Latitude
Unknown
Longitude
Unknown
Altitude
Unknown
Speed
Unknown
Apparent Right ascension
Unknown
Apparent Declination
Unknown
Sunlit
N/A
Visualization observer readout
Local Sidereal Time
08:52:38
Azimuth
Unknown
Elevation
Unknown
Doppler factor
Unknown
Orbital elements
Apogee altitude
389.567 km
Perigee altitude
351.347 km
Semi-major axis
6,748.594 km
Eccentricity
0.00283
Inclination
73.9718°
RAAN
207.2955°
Arg. of periapsis
333.6507°
True anomaly
26.47147°
Mean anomaly
26.3271°
Eccentric anomaly
26.39924°
Mean motion
3.91492 °/min
Orbital period
91.96 mins
BSTAR
0.021995
Loading maneuver chart data...
Computing Atmospheric mass density...

Documentation

Showing up to 5 results
|